Location: Passau
(48.5721°N, 13.4363°E)
Time: 13:11:04
(UTC+02:00)

ISS - Pass Details

Date: 03 October 2020
Orbit: 418 x 420 km, 51.6° (Epoch: 21 October)

Event Time Altitude Azimuth Distance (km) Brightness Sun altitude
Rises 19:31:12 0° 291° (WNW) 2,369 1.7 -9.2°
Reaches altitude 10° 19:33:19 10° 290° (WNW) 1,504 0.5 -9.6°
Maximum altitude 19:36:41 82° 204° (SSW) 429 -3.7 -10.1°
Enters shadow 19:39:26 15° 117° (ESE) 1,247 -1.9 -10.6°
